Tracking 23611 objects as of 17-Sep-2021
HD Live streaming from Space Station
objects crossing your sky now
Track INSPIRATION-4

DMSP 5D-2 F13 DEB

Track DMSP 5D-2 F13 DEB now!
10-day predictions


NORAD ID: 40450
Int'l Code: 1995-015BC
Perigee: 815.6 km
Apogee: 835.9 km
Inclination: 98.7 °
Period: 101.3 minutes
Semi major axis: 7196 km
RCS: Unknown
Launch date: March 24, 1995
Source: United States (US)
Launch site: AIR FORCE WESTERN TEST RANGE (AFWTR)

Note: This is SATELLITE DEBRIS
aabbcc
Your satellite tracking list
Your tracking list is empty




NASA's NSSDC Master Catalog

Two Line Element Set (TLE):
1 40450U 95015BC  21259.76232051  .00000603  00000-0  29256-3 0  9994
2 40450  98.7436 273.4942 0014124 336.0150  24.0368 14.21995597339238
Source of the keplerian elements: AFSPC